Regional Weather Roundup
Issued by NWS Burlington, VT

Home | Current Version | Previous Version | Text Only | Print | Product List | Glossary On
Versions: 1 2 3 4 5 6 7 8 9 10 11 12 13 14 15 16 17 18 19 20 21 22 23 24 25 26 27 28 29 30 31 32 33 34 35 36 37 38 39 40 41 42 43 44 45 46 47 48 49 50
680
ASUS41 KBTV 291610
RWRBTV
VERMONT REGIONAL WEATHER ROUNDUP
NATIONAL WEATHER SERVICE BURLINGTON VT
1200 PM EDT SAT APR 29 2017

NOTE: "FAIR" INDICATES FEW OR NO CLOUDS BELOW 12,000 FEET WITH NO
SIGNIFICANT WEATHER AND/OR OBSTRUCTIONS TO VISIBILITY.

* THESE REPORTS ARE NOT UNDER NWS QUALITY CONTROL AND/OR DO NOT
  REPORT WEATHER SUCH AS PRECIPITATION AND FOG.

VTZ001>019-291700-
_____VERMONT_____


CITY           SKY/WX    TMP DP  RH WIND       PRES   REMARKS
BURLINGTON     CLOUDY    72  46  39 SW8       29.88F
MONTPELIER     CLOUDY    66  47  50 W15G24    29.94F
MORRISVILLE    PTSUNNY   66  42  41 VRB7      29.89F
ST. JOHNSBURY*   N/A     70  38  31 MISG      29.85F
LYNDONVILLE*   FAIR      67  44  43 W9G23     29.90F
MIDDLEBURY*    CLOUDY    66  48  53 S5        29.92F
RUTLAND*       CLOUDY    69  46  43 W10G21    29.94S
SPRINGFIELD    CLOUDY    73  46  38 W8G21     29.91F
HIGHGATE*      CLOUDY    67  43  42 W5        29.88F
NEWPORT*       CLOUDY    67  45  45 SW17G23   29.88F
BENNINGTON     CLOUDY    70  47  43 W13       29.97S
SUTTON*          N/A     68 N/A N/A MISG        N/A

_____LAKE CHAMPLAIN_____


CITY           SKY/WX    TMP DP  RH WIND       PRES   REMARKS
COLCHESTER RF*   N/A     66  43  42 W20G28      N/A

$$

NYZ007-026>031-035-052-083-087-291700-
_____NORTHERN NEW YORK_____


CITY           SKY/WX    TMP DP  RH WIND       PRES   REMARKS
PLATTSBURGH    CLOUDY    71  42  35 VRB5      29.87F
SARANAC LAKE   CLOUDY    64  43  46 SW9G24    29.93F
MASSENA        CLOUDY    64  45  49 W15G23    29.94S
OGDENSBURG*    PTSUNNY   64  47  55 SW15      29.96R
POTSDAM*       CLOUDY    64  48  55 W17G26    29.95S
WATERTOWN      CLOUDY    58  48  69 W14       30.03R
FT DRUM        MOSUNNY   61  46  56 W15       30.00F
ALBANY         CLOUDY    70  49  47 NW15      29.98S
GLENS FALLS    CLOUDY    72  49  44 VRB7      29.94F

$$
NHZ002-005-011-291700-
_____NEW HAMPSHIRE_____


CITY           SKY/WX    TMP DP  RH WIND       PRES   REMARKS
LEBANON        CLOUDY    73  46  38 W6        29.89F
KEENE          CLOUDY    77  54  44 SW9       29.90F
MT WASHINGTON  CLOUDY    43  41  93 W49G60      N/A  WCI  30
PLYMOUTH       PTSUNNY   73  46  38 W12G24    29.87S
WHITEFIELD     PTSUNNY   71  45  39 W14G22    29.87F

$$

_____REGIONAL QUEBEC LOCATIONS_____


CITY           SKY/WX    TMP DP  RH WIND       PRES   REMARKS
MONTREAL       MOSUNNY   64  45  48 W26G36    29.86F
QUEBEC CITY    PTSUNNY   61  46  59 W22G29    29.77F
SHERBROOKE     PTSUNNY   64  41  42 SW18G25   29.83F

_____REGIONAL ONTARIO LOCATIONS_____


CITY           SKY/WX    TMP DP  RH WIND       PRES   REMARKS
OTTAWA         MOSUNNY   61  41  48 NW20G26   29.95F

______KEY______
VSB  - VISIBILITY IN MILES
WCI  - WIND CHILL INDEX
HX   - HEAT INDEX
$$
NNNN




USA.gov is the U.S. government's official web portal to all federal, state and local government web resources and services.